GW3504 Weather Reports


time (UTC)temp
C
wind
direction
speed
KPH
gust
KPH
rain 1hr
cm
rain 24hr
cm
rain mn
cm
humidity
%
barometer
mb
20260905010522 32 0 0.0 0.0 0.00 0.00 0.00 53 1012.4
20260905010046 32 0 0.0 0.0 0.00 0.00 0.00 52 1012.4
20260905005525 32 0 0.0 0.0 0.00 0.00 0.00 51 1012.3
20260905005024 33 0 0.0 0.0 0.00 0.00 0.00 51 1012.3
20260905004550 33 0 0.0 0.0 0.00 0.00 0.00 50 1012.4
20260905004024 33 0 0.0 0.0 0.00 0.00 0.00 49 1012.4
20260905003524 33 0 0.0 0.0 0.00 0.00 0.00 49 1012.4
20260905003051 33 0 0.0 1.6 0.00 0.00 0.00 48 1012.5
20260905002522 34 0 0.0 3.2 0.00 0.00 0.00 48 1012.4
20260905002024 34 0 0.0 3.2 0.00 0.00 0.00 47 1012.4
20260905001547 34 0 0.0 3.2 0.00 0.00 0.00 47 1012.4
20260905001024 35 0 0.0 3.2 0.00 0.00 0.00 47 1012.4
20260905000526 35 0 0.0 6.4 0.00 0.00 0.00 47 1012.5
20260905000047 35 0 0.0 6.4 0.00 0.00 0.00 47 1012.5
20260904235523 35 0 0.0 6.4 0.00 0.00 0.00 46 1012.6
20260904235029 35 178 0.0 16.1 0.00 0.00 0.00 46 1012.6
20260904234550 35 210 3.2 16.1 0.00 0.00 0.00 46 1012.5
20260904234024 35 172 3.2 14.5 0.00 0.00 0.00 45 1012.7
20260904233524 35 0 4.8 12.9 0.00 0.00 0.00 45 1012.7
20260904233054 35 258 3.2 12.9 0.00 0.00 0.00 45 1012.7
20260904232526 35 171 3.2 12.9 0.00 0.00 0.00 45 1012.7
20260904232028 35 166 3.2 11.3 0.00 0.00 0.00 45 1012.7
20260904231552 35 159 3.2 12.9 0.00 0.00 0.00 45 1012.8
20260904231023 35 148 4.8 12.9 0.00 0.00 0.00 44 1012.7
20260904230524 36 159 3.2 11.3 0.00 0.00 0.00 44 1012.7
20260904230048 36 0 3.2 9.7 0.00 0.00 0.00 44 1012.8
20260904225528 36 0 0.0 11.3 0.00 0.00 0.00 45 1012.8
20260904225025 36 159 1.6 14.5 0.00 0.00 0.00 45 1012.8
20260904224548 36 232 4.8 14.5 0.00 0.00 0.00 44 1012.8
20260904224024 36 0 1.6 11.3 0.00 0.00 0.00 43 1012.7
20260904223526 36 198 4.8 12.9 0.00 0.00 0.00 43 1012.6
20260904223044 36 0 1.6 17.7 0.00 0.00 0.00 44 1012.6
20260904222521 35 226 4.8 17.7 0.00 0.00 0.00 44 1012.5
20260904222025 36 148 4.8 16.1 0.00 0.00 0.00 43 1012.6
20260904221541 35 0 3.2 17.7 0.00 0.00 0.00 43 1012.7
20260904221023 36 175 4.8 17.7 0.00 0.00 0.00 44 1012.7
20260904220523 36 197 1.6 19.3 0.00 0.00 0.00 43 1012.8
20260904220052 36 141 3.2 19.3 0.00 0.00 0.00 44 1012.7
20260904215525 36 163 1.6 17.7 0.00 0.00 0.00 43 1012.9
20260904215023 36 162 3.2 19.3 0.00 0.00 0.00 43 1012.9
20260904214549 36 171 4.8 19.3 0.00 0.00 0.00 42 1012.9
20260904214029 36 154 3.2 16.1 0.00 0.00 0.00 43 1013.0
20260904213525 35 195 4.8 19.3 0.00 0.00 0.00 43 1013.0
20260904213043 35 144 6.4 24.1 0.00 0.00 0.00 43 1013.0
20260904212523 35 172 8.0 24.1 0.00 0.00 0.00 42 1013.0
20260904212028 35 156 8.0 24.1 0.00 0.00 0.00 42 1013.1
20260904211547 36 169 6.4 22.5 0.00 0.00 0.00 42 1013.1
20260904211024 36 287 1.6 19.3 0.00 0.00 0.00 42 1013.2
20260904210525 36 74 1.6 20.9 0.00 0.00 0.00 43 1013.1
20260904210046 36 180 8.0 20.9 0.00 0.00 0.00 43 1013.3
20260904205525 36 185 4.8 17.7 0.00 0.00 0.00 43 1013.3
20260904205025 36 177 6.4 17.7 0.00 0.00 0.00 43 1013.3
20260904204542 36 141 4.8 16.1 0.00 0.00 0.00 42 1013.3
20260904204023 35 65 8.0 22.5 0.00 0.00 0.00 44 1013.3
20260904203523 36 169 3.2 24.1 0.00 0.00 0.00 45 1013.4
20260904203050 35 181 8.0 24.1 0.00 0.00 0.00 43 1013.5
20260904202523 35 100 3.2 16.1 0.00 0.00 0.00 44 1013.4
20260904202022 36 175 4.8 14.5 0.00 0.00 0.00 43 1013.6
20260904201547 36 0 4.8 12.9 0.00 0.00 0.00 45 1013.5
20260904201021 36 166 1.6 24.1 0.00 0.00 0.00 44 1013.6
20260904200524 35 144 4.8 24.1 0.00 0.00 0.00 45 1013.6
20260904200051 35 0 3.2 16.1 0.00 0.00 0.00 44 1013.6
20260904195525 35 94 4.8 17.7 0.00 0.00 0.00 45 1013.7
20260904195026 35 134 6.4 17.7 0.00 0.00 0.00 43 1013.8
20260904194543 35 168 3.2 17.7 0.00 0.00 0.00 45 1013.7
20260904194025 35 180 3.2 17.7 0.00 0.00 0.00 44 1013.8
20260904193523 35 124 4.8 17.7 0.00 0.00 0.00 45 1013.9
20260904193049 35 174 1.6 20.9 0.00 0.00 0.00 46 1013.9
20260904192524 35 164 8.0 20.9 0.00 0.00 0.00 46 1013.9
20260904192023 35 0 1.6 19.3 0.00 0.00 0.00 47 1013.9
20260904191545 35 215 6.4 19.3 0.00 0.00 0.00 47 1014.0
20260904191024 34 0 4.8 19.3 0.00 0.00 0.00 47 1014.0
20260904190522 35 138 4.8 17.7 0.00 0.00 0.00 46 1014.1
20260904190041 35 229 1.6 17.7 0.00 0.00 0.00 46 1014.1
20260904185524 35 0 1.6 16.1 0.00 0.00 0.00 46 1014.1
20260904185026 35 261 3.2 16.1 0.00 0.00 0.00 46 1014.1
20260904184558 35 181 3.2 14.5 0.00 0.00 0.00 46 1014.2
20260904184028 35 242 3.2 14.5 0.00 0.00 0.00 46 1014.1
20260904183523 34 290 1.6 16.1 0.00 0.00 0.00 46 1014.2
20260904183049 34 90 3.2 24.1 0.00 0.00 0.00 47 1014.3
20260904182524 34 333 6.4 24.1 0.00 0.00 0.00 47 1014.2
20260904182028 34 0 4.8 20.9 0.00 0.00 0.00 47 1014.2
20260904181545 34 172 4.8 22.5 0.00 0.00 0.00 48 1014.3
20260904181027 34 152 8.0 22.5 0.00 0.00 0.00 46 1014.2
20260904180526 34 261 1.6 19.3 0.00 0.00 0.00 46 1014.3
20260904180056 34 165 3.2 12.9 0.00 0.00 0.00 46 1014.3
20260904175521 34 0 3.2 25.7 0.00 0.00 0.00 47 1014.5
20260904175023 33 220 4.8 25.7 0.00 0.00 0.00 49 1014.6
20260904174542 33 180 6.4 19.3 0.00 0.00 0.00 47 1014.5
20260904174025 33 153 4.8 19.3 0.00 0.00 0.00 50 1014.7
20260904173524 33 213 6.4 22.5 0.00 0.00 0.00 49 1014.9
20260904173051 33 202 8.0 22.5 0.00 0.00 0.00 50 1014.9
20260904172523 33 203 3.2 19.3 0.00 0.00 0.00 49 1014.9
20260904172025 33 154 1.6 17.7 0.00 0.00 0.00 51 1014.9
20260904171549 32 256 8.0 22.5 0.00 0.00 0.00 50 1015.1
20260904171024 32 0 6.4 24.1 0.00 0.00 0.00 51 1015.2
20260904170524 32 173 8.0 24.1 0.00 0.00 0.00 51 1015.2
20260904170042 32 149 9.7 22.5 0.00 0.00 0.00 51 1015.2
20260904165524 32 147 4.8 22.5 0.00 0.00 0.00 51 1015.2
20260904165025 32 171 6.4 22.5 0.00 0.00 0.00 51 1015.2
20260904164542 32 191 4.8 22.5 0.00 0.00 0.00 51 1015.1
20260904164023 32 153 4.8 20.9 0.00 0.00 0.00 52 1015.1
20260904163523 32 0 6.4 22.5 0.00 0.00 0.00 53 1015.1
20260904163054 32 180 6.4 24.1 0.00 0.00 0.00 53 1015.2
20260904162527 32 250 4.8 24.1 0.00 0.00 0.00 53 1015.1
20260904162023 32 161 3.2 24.1 0.00 0.00 0.00 53 1015.1
20260904161545 32 0 3.2 19.3 0.00 0.00 0.00 55 1015.0
20260904161024 31 181 4.8 19.3 0.00 0.00 0.00 56 1015.1
20260904160525 31 147 4.8 19.3 0.00 0.00 0.00 57 1015.1
20260904160043 31 211 4.8 17.7 0.00 0.00 0.00 58 1015.2
20260904155525 31 148 1.6 14.5 0.00 0.00 0.00 60 1015.2
20260904155024 31 167 3.2 16.1 0.00 0.00 0.00 59 1015.2
20260904154544 31 0 3.2 16.1 0.00 0.00 0.00 60 1015.2
20260904154025 30 174 4.8 14.5 0.00 0.00 0.00 61 1015.3
20260904153523 30 175 3.2 16.1 0.00 0.00 0.00 61 1015.3
20260904153057 30 0 1.6 17.7 0.00 0.00 0.00 62 1015.3
20260904152525 30 220 4.8 19.3 0.00 0.00 0.00 63 1015.3
20260904152024 30 302 1.6 19.3 0.00 0.00 0.00 63 1015.3
20260904151542 30 333 3.2 22.5 0.00 0.00 0.00 62 1015.3
20260904151028 29 0 4.8 22.5 0.00 0.00 0.00 63 1015.3
20260904150525 29 198 6.4 22.5 0.00 0.00 0.00 63 1015.3
20260904150046 29 190 3.2 19.3 0.00 0.00 0.00 64 1015.3
20260904145523 29 0 3.2 14.5 0.00 0.00 0.00 64 1015.2
20260904145023 29 167 1.6 14.5 0.00 0.00 0.00 66 1015.1
20260904144545 28 0 1.6 19.3 0.00 0.00 0.00 67 1015.1
20260904144023 28 155 4.8 19.3 0.00 0.00 0.00 69 1015.1
20260904143523 28 135 4.8 17.7 0.00 0.00 0.00 69 1015.1
20260904143044 28 136 3.2 16.1 0.00 0.00 0.00 70 1015.2
20260904142525 27 132 3.2 19.3 0.00 0.00 0.00 71 1015.3
20260904142024 27 328 3.2 19.3 0.00 0.00 0.00 72 1015.2
20260904141604 27 168 6.4 17.7 0.00 0.00 0.00 73 1015.2
20260904141026 26 0 3.2 16.1 0.00 0.00 0.00 74 1015.2
20260904140525 26 192 3.2 14.5 0.00 0.00 0.00 74 1015.3
20260904140048 26 166 0.0 12.9 0.00 0.00 0.00 75 1015.3
20260904135524 26 184 1.6 14.5 0.00 0.00 0.00 76 1015.3
20260904135024 26 192 1.6 14.5 0.00 0.00 0.00 75 1015.3
20260904134548 26 0 1.6 9.7 0.00 0.00 0.00 77 1015.4
20260904134021 25 0 1.6 11.3 0.00 0.00 0.00 78 1015.4
20260904133523 25 163 4.8 11.3 0.00 0.00 0.00 78 1015.4
20260904133047 25 165 3.2 9.7 0.00 0.00 0.00 78 1015.3
20260904132526 25 153 3.2 9.7 0.00 0.00 0.00 78 1015.3
20260904132023 25 173 1.6 8.0 0.00 0.00 0.00 79 1015.3
20260904131603 25 0 0.0 6.4 0.00 0.00 0.00 80 1015.2
20260904131024 24 163 0.0 9.7 0.00 0.00 0.00 81 1015.1
20260904130525 24 0 1.6 9.7 0.00 0.00 0.00 81 1015.1
20260904130051 23 0 3.2 11.3 0.00 0.00 0.00 81 1015.0
20260904125523 23 0 0.0 11.3 0.00 0.00 0.00 81 1014.9
20260904125024 23 162 0.0 9.7 0.00 0.00 0.00 82 1014.8
20260904124548 23 0 1.6 9.7 0.00 0.00 0.00 81 1014.8
20260904124021 23 0 0.0 9.7 0.00 0.00 0.00 82 1014.7
20260904123528 23 171 1.6 9.7 0.00 0.00 0.00 82 1014.7
20260904123103 23 160 1.6 9.7 0.00 0.00 0.00 82 1014.6
20260904122524 23 163 1.6 9.7 0.00 0.00 0.00 82 1014.6
20260904122025 23 167 1.6 9.7 0.00 0.00 0.00 81 1014.6
20260904121541 23 166 1.6 9.7 0.00 0.00 0.00 81 1014.5
20260904121026 23 184 1.6 8.0 0.00 0.00 0.00 81 1014.4
20260904120524 23 165 0.0 4.8 0.00 0.00 0.00 81 1014.3
20260904120047 23 0 0.0 6.4 0.00 0.00 0.00 81 1014.1
20260904115523 23 0 0.0 9.7 0.00 0.00 0.00 81 1014.0
20260904115025 23 0 0.0 9.7 0.00 0.00 0.00 81 1014.1
20260904114546 23 173 1.6 9.7 0.00 0.00 0.00 81 1014.0
20260904114025 23 0 1.6 9.7 0.00 0.00 0.00 81 1014.0
20260904113524 23 0 1.6 8.0 0.00 0.00 0.00 81 1014.0
20260904113049 23 0 0.0 8.0 0.00 0.00 0.00 81 1013.9
20260904112524 24 0 1.6 8.0 0.00 0.00 0.00 80 1013.8
20260904112024 24 159 0.0 9.7 0.00 0.00 0.00 80 1013.8
20260904111552 24 0 1.6 9.7 0.00 0.00 0.00 80 1013.8
20260904111025 24 153 0.0 8.0 0.00 0.00 0.00 80 1013.9
20260904110524 24 173 0.0 8.0 0.00 0.00 0.00 80 1013.9
20260904110049 24 149 1.6 8.0 0.00 0.00 0.00 80 1013.8
20260904105523 24 0 0.0 8.0 0.00 0.00 0.00 79 1013.8
20260904105023 24 0 1.6 8.0 0.00 0.00 0.00 79 1013.8
20260904104542 24 182 0.0 6.4 0.00 0.00 0.00 79 1013.8
20260904104025 25 0 1.6 6.4 0.00 0.00 0.00 78 1013.8
20260904103529 25 173 0.0 9.7 0.00 0.00 0.00 78 1013.8
20260904103044 25 0 1.6 9.7 0.00 0.00 0.00 78 1013.7
20260904102524 25 0 1.6 12.9 0.00 0.00 0.00 78 1013.7
20260904102024 25 0 1.6 12.9 0.00 0.00 0.00 78 1013.7
20260904101559 25 162 3.2 11.3 0.00 0.00 0.00 78 1013.7
20260904101023 25 161 3.2 11.3 0.00 0.00 0.00 77 1013.5
20260904100523 25 173 3.2 8.0 0.00 0.00 0.00 77 1013.5
20260904100045 25 166 1.6 8.0 0.00 0.00 0.00 77 1013.4
20260904095530 25 169 1.6 9.7 0.00 0.00 0.00 77 1013.5
20260904095024 25 206 1.6 9.7 0.00 0.00 0.00 76 1013.4
20260904094546 25 0 3.2 9.7 0.00 0.00 0.00 76 1013.4
20260904094024 25 150 1.6 9.7 0.00 0.00 0.00 76 1013.3
20260904093524 25 165 3.2 9.7 0.00 0.00 0.00 76 1013.2
20260904093041 25 173 3.2 9.7 0.00 0.00 0.00 76 1013.1
20260904092528 25 194 0.0 8.0 0.00 0.00 0.00 77 1013.1
20260904092025 25 175 0.0 11.3 0.00 0.00 0.00 77 1013.1
20260904091549 25 0 1.6 11.3 0.00 0.00 0.00 77 1012.9
20260904091027 25 184 0.0 6.4 0.00 0.00 0.00 77 1012.9
20260904090526 25 0 0.0 6.4 0.00 0.00 0.00 76 1012.9
20260904090047 25 0 0.0 6.4 0.00 0.00 0.00 76 1012.9
20260904085527 25 0 0.0 8.0 0.00 0.00 0.00 75 1012.8
20260904085023 25 0 0.0 8.0 0.00 0.00 0.00 75 1012.9
20260904084545 25 0 0.0 8.0 0.00 0.00 0.00 75 1012.8
20260904084025 26 0 0.0 8.0 0.00 0.00 0.00 74 1012.8
20260904083524 26 0 0.0 6.4 0.00 0.00 0.00 74 1012.9
20260904083055 26 0 0.0 6.4 0.00 0.00 0.00 74 1012.8
20260904082527 26 169 0.0 6.4 0.00 0.00 0.00 74 1012.9
20260904082027 26 0 0.0 4.8 0.00 0.00 0.00 74 1012.8
20260904081545 26 0 0.0 11.3 0.00 0.00 0.00 74 1012.8
20260904081024 26 0 0.0 11.3 0.00 0.00 0.00 74 1012.8
20260904080524 26 0 1.6 9.7 0.00 0.00 0.00 74 1012.9
20260904080044 26 0 0.0 8.0 0.00 0.00 0.00 74 1012.8
20260904075524 26 0 0.0 8.0 0.00 0.00 0.00 74 1012.9
20260904075025 26 179 0.0 8.0 0.00 0.00 0.00 74 1012.8
20260904074553 26 0 0.0 8.0 0.00 0.00 0.00 74 1012.9
20260904074024 26 173 0.0 8.0 0.00 0.00 0.00 73 1012.9
20260904073524 26 198 0.0 8.0 0.00 0.00 0.00 73 1012.9
20260904073050 26 0 0.0 6.4 0.00 0.00 0.00 73 1012.9
20260904072527 26 0 0.0 4.8 0.00 0.00 0.00 73 1012.9
20260904072023 26 0 0.0 4.8 0.00 0.00 0.00 73 1012.8
20260904071546 26 0 0.0 3.2 0.00 0.00 0.00 73 1012.9
20260904071024 26 0 0.0 3.2 0.00 0.00 0.00 72 1012.8
20260904070530 26 0 0.0 3.2 0.00 0.00 0.00 72 1012.9
20260904070044 26 0 0.0 3.2 0.00 0.00 0.00 72 1012.9
20260904065525 26 0 0.0 3.2 0.00 0.00 0.00 72 1013.0
20260904065024 26 0 0.0 3.2 0.00 0.00 0.00 71 1013.0
20260904064540 26 0 0.0 3.2 0.00 0.00 0.00 71 1013.1
20260904064027 26 0 0.0 3.2 0.00 0.00 0.00 70 1013.0
20260904063523 26 263 0.0 1.6 0.00 0.00 0.00 70 1013.0
20260904063105 27 0 0.0 3.2 0.00 0.00 0.00 70 1013.1
20260904062525 27 0 0.0 3.2 0.00 0.00 0.00 69 1013.0
20260904062026 27 0 0.0 4.8 0.00 0.00 0.00 69 1013.1
20260904061545 27 0 0.0 4.8 0.00 0.00 0.00 69 1013.1
20260904061028 27 0 0.0 0.0 0.00 0.00 0.00 68 1013.1
20260904060525 27 0 0.0 3.2 0.00 0.00 0.00 68 1013.0
20260904060106 27 0 0.0 3.2 0.00 0.00 0.00 67 1012.9
20260904055525 27 0 0.0 6.4 0.00 0.00 0.00 67 1012.9
20260904055025 27 0 0.0 6.4 0.00 0.00 0.00 66 1012.9
20260904054542 27 0 0.0 1.6 0.00 0.00 0.00 66 1012.8
20260904054027 27 0 0.0 1.6 0.00 0.00 0.00 65 1012.8
20260904053523 27 0 0.0 1.6 0.00 0.00 0.00 65 1012.8
20260904053046 27 0 0.0 1.6 0.00 0.00 0.00 64 1012.8
20260904052524 28 0 0.0 6.4 0.00 0.00 0.00 64 1012.8
20260904052028 28 125 0.0 6.4 0.00 0.00 0.00 64 1012.8
20260904051548 28 0 0.0 3.2 0.00 0.00 0.00 63 1012.7
20260904051021 28 0 0.0 8.0 0.00 0.00 0.00 63 1012.7
20260904050523 28 236 0.0 8.0 0.00 0.00 0.00 63 1012.6
20260904050044 28 169 0.0 8.0 0.00 0.00 0.00 63 1012.7
20260904045526 28 0 0.0 9.7 0.00 0.00 0.00 62 1012.7
20260904045024 28 167 1.6 11.3 0.00 0.00 0.00 62 1012.7
20260904044549 28 170 3.2 11.3 0.00 0.00 0.00 62 1012.7
20260904044025 28 169 1.6 11.3 0.00 0.00 0.00 62 1012.7
20260904043523 28 176 1.6 11.3 0.00 0.00 0.00 61 1012.7
20260904043047 28 0 1.6 9.7 0.00 0.00 0.00 61 1012.6
20260904042524 28 0 1.6 8.0 0.00 0.00 0.00 62 1012.6
20260904042024 28 167 1.6 8.0 0.00 0.00 0.00 62 1012.4
20260904041545 28 175 0.0 8.0 0.00 0.00 0.00 62 1012.5
20260904041028 28 143 0.0 8.0 0.00 0.00 0.00 62 1012.4
20260904040523 28 0 0.0 8.0 0.00 0.00 0.00 62 1012.4
20260904040046 28 0 0.0 8.0 0.00 0.00 0.00 62 1012.5
20260904035524 28 0 1.6 8.0 0.00 0.00 0.00 61 1012.5
20260904035025 28 0 0.0 4.8 0.00 0.00 0.00 61 1012.5
20260904034557 29 0 0.0 4.8 0.00 0.00 0.00 61 1012.5
20260904034024 29 0 0.0 4.8 0.00 0.00 0.00 60 1012.5
20260904033524 29 0 0.0 6.4 0.00 0.00 0.00 60 1012.5
20260904033041 29 0 0.0 9.7 0.00 0.00 0.00 59 1012.4
20260904032525 29 0 0.0 9.7 0.00 0.00 0.00 59 1012.4
20260904032023 29 163 1.6 9.7 0.00 0.00 0.00 59 1012.4
20260904031547 29 0 1.6 8.0 0.00 0.00 0.00 59 1012.5
20260904031024 30 0 0.0 6.4 0.00 0.00 0.00 59 1012.4
20260904030526 30 0 0.0 6.4 0.00 0.00 0.00 59 1012.4
20260904030042 30 0 0.0 6.4 0.00 0.00 0.00 59 1012.4
20260904025524 30 0 0.0 6.4 0.00 0.00 0.00 59 1012.3
20260904025024 30 0 0.0 3.2 0.00 0.00 0.00 59 1012.3
20260904024542 30 0 0.0 1.6 0.00 0.00 0.00 59 1012.2
20260904024025 30 0 0.0 3.2 0.00 0.00 0.00 58 1012.2
20260904023529 30 0 0.0 3.2 0.00 0.00 0.00 58 1012.1
20260904023053 30 0 0.0 8.0 0.00 0.00 0.00 57 1012.1
20260904022524 30 173 0.0 8.0 0.00 0.00 0.00 57 1012.0
20260904022023 30 0 0.0 8.0 0.00 0.00 0.00 57 1012.0
20260904021549 30 0 0.0 8.0 0.00 0.00 0.00 56 1011.9
20260904021024 31 0 0.0 8.0 0.00 0.00 0.00 56 1011.9
20260904020524 31 0 0.0 1.6 0.00 0.00 0.00 55 1011.8
20260904020044 31 0 0.0 3.2 0.00 0.00 0.00 55 1011.8
20260904015524 31 0 0.0 3.2 0.00 0.00 0.00 54 1011.8
20260904015026 31 0 0.0 6.4 0.00 0.00 0.00 54 1011.7
20260904014549 31 0 0.0 6.4 0.00 0.00 0.00 53 1011.6
20260904014027 31 160 0.0 3.2 0.00 0.00 0.00 53 1011.5
20260904013523 31 0 0.0 8.0 0.00 0.00 0.00 53 1011.5
20260904013042 31 0 0.0 8.0 0.00 0.00 0.00 52 1011.3
20260904012530 31 0 0.0 6.4 0.00 0.00 0.00 52 1011.3
20260904012027 31 0 1.6 6.4 0.00 0.00 0.00 52 1011.2
20260904011548 32 0 0.0 6.4 0.00 0.00 0.00 52 1011.1
20260904011028 32 0 0.0 6.4 0.00 0.00 0.00 52 1011.1